User: anonymous   Login
Location: Dumpton Point
(51.3500°N, 1.4433°E)
Time: 12:06:03
(UTC+00:00)
Language:

SR - Orbit

View from above orbital plane
View from above orbital plane
View from above satellite
View from above satellite

Ground track
Ground track

The orbit data is extracted from the following two-line orbital elements,

1 00046U 60007B   22269.43938545  .00000603  00000-0  13875-3 0  9991
2 00046  66.6907 320.5455 0215194 232.7490 125.3821 14.49807790259545
Epoch (UTC): 26 September 2022 10:32:42
Eccentricity: 0.0215194
inclination: 66.6907°
perigee height: 573 km
apogee height: 879 km
right ascension of ascending node: 320.5455°
argument of perigee: 232.7490°
revolutions per day: 14.49807790
mean anomaly at epoch: 125.3821°
orbit number at epoch: 25954

The dashed part of the orbit path shows where the satellite is in the earth's shadow,  

DLR